Date String (YYYY-MM-DD hh:mm:ss) UTC,Instrument flags,Ambient pressure (hPa),Sample flow (lpm),Bypass flow (lpm),Sample temperature (°C),Ambient temperature (°C),ASC tube jacket temperature (°C),LED temperature (°C),Box temperature (°C),Sample RH (%),Span deviation,Mass concentration (μg/m³),Mass concentration (μg/m³),Mass concentration (μg/m³)
DateTimeUTC,F1_M11,P_M11,Q1_M11,Q2_M11,T1_M11,T2_M11,T3_M11,T4_M11,T5_M11,U1_M11,ZSPAN_M11,X2_M11,X0_M11,X1_M11
2023-05-05 14:00:00,,0825.9,5.01,0.00,28.8,27.4,00.0,37.2,30.3,19.8,0000.0,0003.81,0010.54,0002.28
2023-05-05 14:01:00,,0825.8,5.00,0.00,28.9,27.4,00.0,37.2,30.3,19.7,0000.0,0003.83,0010.57,0002.29
2023-05-05 14:02:00,,0825.8,5.01,0.00,28.9,27.5,00.0,37.2,30.4,19.8,0000.0,0003.82,0010.14,0002.29
2023-05-05 14:03:00,,0825.8,4.98,0.00,28.9,27.5,00.0,37.2,30.4,19.2,0000.0,0003.86,0011.16,0002.30
2023-05-05 14:04:00,,0825.8,5.01,0.00,28.9,27.5,00.0,37.2,30.4,18.9,0000.0,0003.86,0011.35,0002.30
2023-05-05 14:05:00,,0825.8,5.00,0.00,28.9,27.5,00.0,37.2,30.4,19.3,0000.0,0003.86,0011.05,0002.30
2023-05-05 14:06:00,,0825.7,5.00,0.00,28.9,27.5,00.0,37.2,30.4,19.3,0000.0,0003.84,0010.51,0002.29
2023-05-05 14:07:00,,0825.8,5.01,0.00,28.9,27.5,00.0,37.2,30.5,19.7,0000.0,0003.85,0010.83,0002.28
2023-05-05 14:08:00,,0825.8,5.00,0.00,28.9,27.5,00.0,37.2,30.5,18.7,0000.0,0003.90,0011.04,0002.29
2023-05-05 14:09:00,,0825.8,4.98,0.00,28.9,27.5,00.0,37.3,30.5,18.5,0000.0,0003.93,0011.14,0002.28
2023-05-05 14:10:00,,0825.8,5.00,0.00,29.0,27.6,00.0,37.3,30.5,20.2,0000.0,0003.93,0010.85,0002.28
2023-05-05 14:11:00,,0825.8,5.00,0.00,29.0,27.6,00.0,37.3,30.5,20.2,0000.0,0003.91,0010.95,0002.28
2023-05-05 14:12:00,,0825.8,5.01,0.00,29.0,27.6,00.0,37.3,30.5,19.7,0000.0,0003.88,0010.89,0002.29
2023-05-05 14:13:00,,0825.8,5.00,0.00,29.0,27.6,00.0,37.3,30.5,20.1,0000.0,0003.86,0010.79,0002.29
2023-05-05 14:14:00,,0825.8,5.00,0.00,29.0,27.6,00.0,37.3,30.5,19.8,0000.0,0003.83,0010.06,0002.29
2023-05-05 14:15:00,,0825.8,5.00,0.00,29.0,27.6,00.0,37.3,30.5,19.3,0000.0,0003.79,0009.41,0002.29
2023-05-05 14:16:00,,0825.9,5.00,0.00,29.0,27.6,00.0,37.3,30.6,20.0,0000.0,0003.79,0010.20,0002.30
2023-05-05 14:17:00,,0825.9,4.99,0.00,29.0,27.6,00.0,37.3,30.6,19.3,0000.0,0003.76,0010.23,0002.32
2023-05-05 14:18:00,,0825.8,5.01,0.00,29.1,27.7,00.0,37.4,30.6,18.2,0000.0,0003.71,0009.90,0002.31
2023-05-05 14:19:00,,0825.9,5.00,0.00,29.1,27.7,00.0,37.4,30.6,18.1,0000.0,0003.65,0009.59,0002.30
2023-05-05 14:20:00,,0825.9,5.01,0.00,29.1,27.7,00.0,37.4,30.6,18.1,0000.0,0003.66,0009.66,0002.30
2023-05-05 14:21:00,,0825.9,5.00,0.00,29.1,27.7,00.0,37.4,30.6,19.5,0000.0,0003.70,0010.42,0002.33
2023-05-05 14:22:00,,0825.9,5.00,0.00,29.1,27.7,00.0,37.4,30.6,19.4,0000.0,0003.80,0010.44,0002.35
2023-05-05 14:23:00,,0825.9,5.00,0.00,29.1,27.7,00.0,37.4,30.6,18.6,0000.0,0003.82,0010.32,0002.34
2023-05-05 14:24:00,,0826.0,4.99,0.00,29.1,27.7,00.0,37.4,30.7,19.1,0000.0,0003.84,0010.50,0002.35
2023-05-05 14:25:00,,0825.9,5.01,0.00,29.1,27.7,00.0,37.4,30.7,19.2,0000.0,0003.87,0010.76,0002.36
2023-05-05 14:26:00,,0825.9,5.01,0.00,29.2,27.8,00.0,37.5,30.6,18.7,0000.0,0003.90,0011.24,0002.35
2023-05-05 14:27:00,,0825.9,4.99,0.00,29.2,27.8,00.0,37.5,30.7,18.7,0000.0,0003.92,0011.16,0002.34
2023-05-05 14:28:00,,0825.9,5.00,0.00,29.2,27.8,00.0,37.5,30.7,18.5,0000.0,0003.95,0011.16,0002.34
2023-05-05 14:29:00,,0825.9,5.00,0.00,29.2,27.8,00.0,37.5,30.7,18.5,0000.0,0004.03,0011.41,0002.36
2023-05-05 14:30:00,,0825.9,5.01,0.00,29.2,27.8,00.0,37.5,30.7,18.9,0000.0,0004.06,0011.48,0002.37
2023-05-05 14:31:00,,0825.9,5.01,0.00,29.2,27.8,00.0,37.5,30.7,18.2,0000.0,0004.10,0011.64,0002.40
2023-05-05 14:32:00,,0825.9,5.00,0.00,29.2,27.8,00.0,37.5,30.7,18.1,0000.0,0004.08,0010.85,0002.40
2023-05-05 14:33:00,,0825.8,4.98,0.00,29.3,27.8,00.0,37.5,30.7,18.3,0000.0,0003.99,0010.59,0002.40
2023-05-05 14:34:00,,0825.8,5.00,0.00,29.3,27.9,00.0,37.5,30.8,18.0,0000.0,0003.98,0010.52,0002.41
2023-05-05 14:35:00,,0825.8,5.00,0.00,29.3,27.9,00.0,37.5,30.8,18.4,0000.0,0003.99,0010.52,0002.41
2023-05-05 14:36:00,,0825.8,5.00,0.00,29.3,27.9,00.0,37.6,30.8,18.4,0000.0,0004.02,0010.48,0002.41
2023-05-05 14:37:00,,0825.8,5.01,0.00,29.3,27.9,00.0,37.6,30.8,17.1,0000.0,0004.04,0010.07,0002.44
2023-05-05 14:38:00,,0825.8,5.00,0.00,29.3,27.9,00.0,37.6,30.8,17.2,0000.0,0004.02,0009.57,0002.45
2023-05-05 14:39:00,,0825.8,5.00,0.00,29.3,27.9,00.0,37.6,30.8,18.2,0000.0,0004.00,0009.44,0002.45
2023-05-05 14:40:00,,0825.8,4.99,0.00,29.3,27.9,00.0,37.6,30.8,18.1,0000.0,0004.01,0009.97,0002.47
2023-05-05 14:41:00,,0825.8,5.00,0.00,29.3,27.9,00.0,37.6,30.8,18.9,0000.0,0004.06,0010.31,0002.49
2023-05-05 14:42:00,,0825.7,5.00,0.00,29.3,27.9,00.0,37.6,30.8,19.2,0000.0,0003.98,0009.98,0002.50
2023-05-05 14:43:00,,0825.7,5.00,0.00,29.3,27.9,00.0,37.6,30.8,19.8,0000.0,0003.98,0010.19,0002.51
2023-05-05 14:44:00,,0825.7,5.01,0.00,29.3,28.0,00.0,37.7,30.9,19.3,0000.0,0004.04,0010.31,0002.52
2023-05-05 14:45:00,,0825.7,5.00,0.00,29.4,28.0,00.0,37.7,30.9,18.7,0000.0,0004.14,0010.65,0002.54
2023-05-05 14:46:00,,0825.6,4.99,0.00,29.4,28.0,00.0,37.7,30.8,19.2,0000.0,0004.17,0010.60,0002.57
2023-05-05 14:47:00,,0825.6,5.00,0.00,29.4,28.0,00.0,37.7,30.8,19.7,0000.0,0004.14,0010.26,0002.57
2023-05-05 14:48:00,,0825.6,4.99,0.00,29.4,28.0,00.0,37.7,30.9,19.7,0000.0,0004.17,0010.58,0002.59
2023-05-05 14:49:00,,0825.6,4.98,0.00,29.4,28.0,00.0,37.7,30.9,19.0,0000.0,0004.23,0010.81,0002.61
2023-05-05 14:50:00,,0825.7,5.00,0.00,29.4,28.0,00.0,37.7,31.0,19.0,0000.0,0004.26,0011.09,0002.62
2023-05-05 14:51:00,,0825.7,5.01,0.00,29.4,28.0,00.0,37.7,30.9,18.5,0000.0,0004.26,0011.06,0002.63
2023-05-05 14:52:00,,0825.7,5.00,0.00,29.4,28.0,00.0,37.7,30.9,18.8,0000.0,0004.26,0010.75,0002.63
2023-05-05 14:53:00,,0825.7,4.99,0.00,29.4,28.0,00.0,37.7,30.9,18.6,0000.0,0004.27,0010.78,0002.64
2023-05-05 14:54:00,,0825.7,5.00,0.00,29.4,28.0,00.0,37.8,31.0,18.4,0000.0,0004.25,0010.64,0002.62
2023-05-05 14:55:00,,0825.7,5.00,0.00,29.4,28.0,00.0,37.8,31.0,19.1,0000.0,0004.20,0010.44,0002.61
2023-05-05 14:56:00,,0825.7,5.00,0.00,29.4,28.0,00.0,37.8,31.0,18.7,0000.0,0004.19,0010.40,0002.62
2023-05-05 14:57:00,,0825.7,5.00,0.00,29.4,28.0,00.0,37.8,31.0,19.8,0000.0,0004.15,0010.73,0002.63
2023-05-05 14:58:00,,0825.7,5.00,0.00,29.4,28.0,00.0,37.8,30.9,19.7,0000.0,0004.15,0010.67,0002.65
2023-05-05 14:59:00,,0825.6,5.01,0.00,29.4,28.0,00.0,37.8,30.9,19.9,0000.0,0004.17,0010.49,0002.65
